Overview Statistics Trail Chart Weather Telemetry Raw packets
 

This is the latest recevied weather packets stored in our database for station/object DL6DJ-15. If no packets are shown the sender has not sent any weather packets the latest 10 day(s).

<< 12 13 14 15 16 17 18 >>
Time Temp. Humidity Pressure Rain* Wind** Luminosity Snow
1788523660 30.56° C 34% 1017.8 hPa - - - -
1788523360 30° C 34% 1017.8 hPa - - - -
1788523059 30.56° C 34% 1018 hPa - - - -
1788522759 30.56° C 34% 1017.8 hPa - - - -
1788522459 30.56° C 33% 1017.9 hPa - - - -
1788522158 31.11° C 34% 1017.9 hPa - - - -
1788521858 30.56° C 33% 1018.1 hPa - - - -
1788521558 30.56° C 34% 1018.1 hPa - - - -
1788521257 30.56° C 34% 1018.1 hPa - - - -
1788520957 30.56° C 34% 1018.2 hPa - - - -
1788520656 30.56° C 34% 1018.3 hPa - - - -
1788520356 30.56° C 33% 1018.4 hPa - - - -
1788520055 31.11° C 33% 1018.7 hPa - - - -
1788519755 30.56° C 34% 1018.6 hPa - - - -
1788519455 31.11° C 35% 1018.7 hPa - - - -
1788519154 30° C 35% 1018.9 hPa - - - -
1788518854 30.56° C 34% 1018.9 hPa - - - -
1788518554 30.56° C 35% 1018.9 hPa - - - -
1788518253 31.11° C 33% 1019.1 hPa - - - -
1788517953 30.56° C 36% 1019.2 hPa - - - -
1788517652 30.56° C 35% 1019.4 hPa - - - -
1788517352 30.56° C 34% 1019.4 hPa - - - -
1788517051 30.56° C 36% 1019.4 hPa - - - -
1788516751 30° C 36% 1019.6 hPa - - - -
1788516451 29.44° C 37% 1019.5 hPa - - - -

* Rain since midnight (hover to see other rain measurements)
** Current wind speed in m/s (hover to see current wind gust speed)